Location: Bh?mavarapp?du
(16.7041°N, 80.6518°E)
Time: 02:11:09
(UTC+00:00)

CZ-4C R/B - Pass Details

Date: 21 April 2021
Orbit: 612 x 1390 km, 63.4° (Epoch: 07 May)

Event Time Altitude Azimuth Distance (km) Brightness Sun altitude
Rises 22:15:09 0° 330° (NNW) 4,199 5.8 -28.6°
Reaches altitude 10° 22:17:52 10° 328° (NNW) 3,305 5.2 -28.0°
Maximum altitude 22:26:04 69° 248° (WSW) 1,463 3.1 -26.2°
Drops below altitude 10° 22:34:38 10° 166° (SSE) 3,436 5.2 -24.3°
Sets 22:37:31 0° 164° (SSE) 4,373 5.8 -23.7°
